Regional Weather Roundup
Issued by NWS

Home | Current Version | Previous Version | Graphics & Text | Print | Product List | Glossary On
Versions: 1 2 3 4 5 6 7 8 9 10 11 12 13 14 15 16 17 18 19 20 21 22 23 24 25 26 27 28 29 30 31 32 33 34 35 36 37 38 39 40 41 42 43 44 45 46 47 48 49 50
000
ASUS43 KMKX 031721
RWRWI

WISCONSIN REGIONAL WEATHER ROUNDUP
NATIONAL WEATHER SERVICE MILWAUKEE/SULLIVAN WI
1200 PM CDT MON AUG 03 2015

NOTE: "FAIR" INDICATES FEW OR NO CLOUDS BELOW 12,000 FEET WITH NO
SIGNIFICANT WEATHER AND/OR OBSTRUCTIONS TO VISIBILITY.

WIZ001-002-006>008-014>016-023>028-031800-
NORTHWEST WISCONSIN

CITY           SKY/WX    TMP DP  RH WIND       PRES   REMARKS
SUPERIOR ARPT  CLOUDY    68  54  60 NW13G18   29.84S
ASHLAND        CLOUDY    69  53  56 NW10G21   29.83R
HAYWARD        PTSUNNY   69  50  50 NW8       29.86R
SIREN          MOSUNNY   70  51  50 W16       29.88S
CUMBERLAND     SUNNY     68  52  56 NW16      29.87F
RICE LAKE      MOSUNNY   71  52  50 W15G21    29.89S
CHETEK         SUNNY     71  53  53 NW6G18    29.87S
LADYSMITH      PTSUNNY   70  53  53 NW12G21   29.87S
EAU CLAIRE     SUNNY     75  47  36 NW21G28   29.86S
MENOMONIE      SUNNY     76  46  34 W16G26    29.88S
NEW RICHMOND   SUNNY     73  46  39 NW20G25   29.90S
OSCEOLA        SUNNY     72  49  44 W20G25    29.92F
$$

WIZ003>005-009-010-017-018-031800-
NORTH CENTRAL WISCONSIN

CITY           SKY/WX    TMP DP  RH WIND       PRES   REMARKS
MANITOWISH WTR CLOUDY    64  51  63 NW13G18   29.82S
ARBOR VITAE    CLOUDY    65  51  62 NW9       29.82R
WOODRUFF       CLOUDY    65  51  62 NW9       29.82R
RHINELANDER    CLOUDY    68  50  52 W14G21    29.83R
EAGLE RIVER    CLOUDY    66  48  52 NW13G21   29.81R
LAND O LAKES   CLOUDY    65  50  59 NW7G16    29.82R
PHILLIPS       PTSUNNY   67  53  59 W8        29.83S
TOMAHAWK       MOSUNNY   69  52  55 W10G18    29.83S
MEDFORD        PTSUNNY   69  52  54 NW12G21   29.85S
MERRILL        NOT AVBL
$$

WIZ029-030-035-036-043>047-031800-
CENTRAL WISCONSIN

CITY           SKY/WX    TMP DP  RH WIND       PRES   REMARKS
WAUSAU         SUNNY     74  47  38 W20       29.82R
MOSINEE        MOSUNNY   72  46  40 W13G22    29.85R
MARSHFIELD     SUNNY     73  45  36 NW17G25   29.85S
STEVENS POINT  SUNNY     71  45  39 W14G25    29.85S
WAUPACA        MOSUNNY   76  43  30 W15G23    29.83S
WAUTOMA        MOSUNNY   78  44  29 W18G26    29.85S
WISC RAPIDS    SUNNY     77  44  30 NW18      29.86F
CAMP DOUGLAS   MOSUNNY   75  50  41 W18G26    29.87R
$$

WIZ011>013-019>022-031-037>040-048>050-031800-
NORTHEAST WISCONSIN

CITY           SKY/WX    TMP DP  RH WIND       PRES   REMARKS
ANTIGO         MOSUNNY   71  47  42 NW13G21   29.82S
SHAWANO        MOSUNNY   75  51  42 NW10G17   29.80F
OCONTO         CLOUDY    71  51  49 NW6       29.78S
STURGEON BAY   MOSUNNY   72  52  49 W12       29.80F
GREEN BAY      SUNNY     75  56  51 W13       29.80S
MANITOWOC      PTSUNNY   73  50  44 MISG      29.81S
APPLETON       MOSUNNY   73  43  33 W16G23    29.83R
CLINTONVILLE   MOSUNNY   73  43  33 NW13      29.81S
OSHKOSH        MOSUNNY   75  48  38 W15G25    29.83S
$$

WIZ032>034-041-042-053>061-031800-
SOUTHWEST WISCONSIN

CITY           SKY/WX    TMP DP  RH WIND       PRES   REMARKS
LA CROSSE      SUNNY     78  48  34 NW15      29.89R
SPARTA         MOSUNNY   77  44  31 W15G22    29.89S
VIROQUA        MOSUNNY   74  52  47 NW13      29.92S
BOSCOBEL       SUNNY     81  50  33 NW12G21   29.91S HX  80
PRAIRIE DU CHI SUNNY     79  43  27 W12G17    29.91F
PLATTEVILLE    SUNNY     76  50  40 W13       29.93S
$$

WIZ056-057-062-063-064-067-068-031800-
SOUTH CENTRAL WISCONSIN

CITY           SKY/WX    TMP DP  RH WIND       PRES   REMARKS
REEDSBURG      MOSUNNY   76  46  33 NW15G26   29.88S
BARABOO/DELLS  MOSUNNY   77  42  29 NW14G21   29.88S
LONE ROCK      SUNNY     78  46  32 NW18G30   29.90R
MINERAL POINT  SUNNY     77  46  33 W10G16    29.92S
MADISON        MOSUNNY   76  46  34 NW13G24   29.88R
MIDDLETON      SUNNY     78  42  27 NW16G23   29.89S
WATERTOWN      SUNNY     76  49  38 NW16G23   29.86S
MONROE         SUNNY     77  46  33 W12       29.91S
JANESVILLE     SUNNY     81  45  28 W16       29.89R
$$

WIZ051-052-058>065-066-070>072-031800-
SOUTHEAST WISCONSIN

CITY           SKY/WX    TMP DP  RH WIND       PRES   REMARKS
MILWAUKEE      MOSUNNY   77  43  29 W15G23    29.84S
WAUKESHA       SUNNY     73  43  33 W14G23    29.86S
MILWAUKEE/TIMM SUNNY     75  41  29 NW18G25   29.85S
RACINE         SUNNY     78  48  34 NW15      29.86S
BURLINGTON     SUNNY     76  43  30 W14G21    29.87S
KENOSHA        SUNNY     77  53  43 W14       29.86S
FOND DU LAC    MOSUNNY   75  49  39 NW15G23   29.84S
SHEBOYGAN      MOSUNNY   73  52  47 W13G23    29.82S
WEST BEND      SUNNY     73  45  35 W10G20    29.84S
JUNEAU         MOSUNNY   73  49  43 W12G18    29.87S
$$

LSZ147-162-031800-
LAKE SUPERIOR

STATION/POSITION TIME  TEMP    WIND        PRES    WAVE
                       AIR SEA DIR/SP/G            HT/PER
                 (UTC) (F)     (DEG/KT/KT) (MB)    (FT/S)
W MID LAKE BUOY  1650   57 55  260/ 14/ 17 1007.9R   2/ 4
DEVILS ISLAND    1700   62     230/  8/ 11 1009.2R
PORT WING        1600   64     260/ 13/ 16 1009.8S
SAXON HARBOR     1640   66                 1009.5R
$$

LMZ867-665-643>646-031800-
LAKE MICHIGAN

STATION/POSITION TIME  TEMP    WIND        PRES    WAVE
                       AIR SEA DIR/SP/G            HT/PER
                 (UTC) (F)     (DEG/KT/KT) (MB)    (FT/S)
CHAMBERS ISLAND  1600   70     210/  5/ 10 1008.1S
S GREEN BAY BUOY 1700   68 71  210/ 14/ 17 1010.1S
N MID LAKE BUOY  1650   65 68  250/  4/  6 1007.6R   2/ 6
NORTHPORT PIER   1600   69     290/  6/ 11 1007.8S
SISTER BAY       1618   74     290/ 10/ 12   N/A
ALGOMA LAKESHORE 1612          320/  7/ 10   N/A
KEWAUNEE LAKESHO 1600   71     310/  5/  9 1008.5R
SHEBOYGAN LAKESH 1700   71     280/ 14/ 18 1009.8R
PORT WASHINGTON  1600   74     290/  9/ 18 1010.5
ATWATER BUOY     1700   69 54  310/ 12/ 16 1011.8R
MILWAUKEE LAKESH 1700   74     300/ 13/ 17   N/A
KENOSHA   LAKESH 1700   75     310/ 11/ 20 1010.5S
$$

TC  - TEMPERATURE IN CELSIUS
VSB - VISIBILITY IN STATUTE MILES
WCI - WIND CHILL INDEX
HX  - HEAT INDEX




USA.gov is the U.S. government's official web portal to all federal, state and local government web resources and services.